Regional Weather Roundup
Issued by NWS Newport/Morehead, NC

Current Version | Previous Version | Graphics & Text | Print | Product List | Glossary Off
Versions: 1 2 3 4 5 6 7 8 9 10 11 12 13 14 15 16 17 18 19 20 21 22 23 24 25 26 27 28 29 30 31 32 33 34 35 36 37 38 39 40 41 42 43 44 45 46 47 48 49 50

000
ASUS42 KMHX 311222
RWRMHX
WEATHER ROUNDUP FOR EASTERN NORTH CAROLINA
NATIONAL WEATHER SERVICE NEWPORT/MOREHEAD CITY NC
700 AM EST SAT JAN 31 2015

NOTE: "FAIR" INDICATES FEW OR NO CLOUDS BELOW 12,000 FEET
WITH NO SIGNIFICANT WEATHER AND/OR OBSTRUCTIONS TO VISIBILITY

NCZ015>017-031-032-045>047-102-103-311300-
NORTH COAST

CITY           SKY/WX    TMP DP  RH WIND       PRES   REMARKS
EDENTON        CLEAR     26  15  62 N10       30.32R WCI  16
ELIZABETH CITY CLEAR     23  10  57 NW9       30.32R
KITTY HAWK     SUNNY     27   8  46 NW12G23   30.27R WCI  16
MANTEO         CLEAR     27   9  46 N22G32    30.29R WCI  12

$$

NCZ045>047-081-094-103-104-311300-
CENTRAL COAST

CITY           SKY/WX    TMP DP  RH WIND       PRES   REMARKS
FRISCO         CLEAR     30  13  49 NW16G30   30.28R WCI  19
SWANQUARTER    NOT AVBL

$$

NCZ095-097-098-100-101-311300-
SOUTHERN COAST

CITY           SKY/WX    TMP DP  RH WIND       PRES   REMARKS
BEAUFORT       CLEAR     29  13  51 N14G22    30.31R WCI  18
CEDAR ISLAND   NOT AVBL
JACKSONVILLE   CLEAR     27  13  55 N10       30.33R WCI  17
PINEY ISLAND     N/A    N/A N/A N/A MISG      30.30S
WILMINGTON     CLEAR     28  11  48 NW3       30.34R


$$

NCZ011>013-027>030-043-044-078>080-089-090>093-098-311300-
COASTAL PLAIN

CITY           SKY/WX    TMP DP  RH WIND       PRES   REMARKS
AHOSKIE        CLEAR     23  10  57 CALM      30.35R
CLINTON        CLEAR     28  14  57 CALM      30.34R
ELIZABETHTOWN  CLEAR     26  14  60 CALM      30.35S
GOLDSBORO      CLEAR     32  12  43 NW9G17    30.29R
GREENVILLE     CLEAR     28  12  50 CALM      30.34R
HAVELOCK       CLEAR     29  12  49 N15       30.32R WCI  18
KENANSVILLE    CLEAR     27  12  54 N6        30.35R
KINSTON        CLEAR     25  14  63 NW7       30.34R
NEW BERN       CLEAR     30  12  47 N9        30.33R
RICHLANDS      CLEAR     27  10  50 NW3       30.34R
ROCKY MOUNT    CLEAR     26  10  50 NW8       30.34R
WASHINGTON     CLEAR     25  13  60 CALM      30.33S
WHITEVILLE     CLEAR     28  14  56 CALM      30.35R

$$

AMZ130-135-150-152-154-156-158-170-250-252-270-ANZ085-086-088-633-658-670-311300-
MARINE OBSERVATIONS

STATION/POSITION TIME  TEMP    WIND        PRES    WAVE   SWELL
                       AIR SEA DIR/SP/G            HT/PER HT/PER
                 (UTC) (F)     (DEG/KT/KT) (MB)    (FT/S) (FT/S)
CHESAPEAKE LIGHT 1200   24     330/ 27/ 31 1025.3
64 E VA BEACH    1200   29 48  330/ 27/ 33 1022.1   11/ 8
DUCK             1200   27 41  310/ 22/ 26 1024.4
2 E DUCK         1200      42                N/A     7/ 7
10 NE DUCK       1200      44                N/A     9/ 7   2/11
OREGON INLET     1200   27 39  320/ 20/ 25 1025.1
13E OREGON INLT  1200      45                N/A    10/ 8   2/11
HATTERAS CG      1200   31 40  330/ 24/ 27 1025.6
DIAMOND BUOY     1200   34 63  330/ 27/ 31 1023.8    7/ 5   2/ 9
17 S OCRACOKE    NOT AVBL
CAPE LOOKOUT     1200   31     340/ 18/ 22 1025.9
BEAUFORT LAB     1200   30 46  350/ 15/ 20 1025.2
27 SE WRIGHTSVLE NOT AVBL
5 SE WRIGHTSVLE  1200   34 51  360/ 17/ 19 1027.2
225 S CAPE HAT   1149   53 71  320/ 21/ 29 1022.3   14/ 9
41 SE CHARLESTON 1200   46 68   10/ 19/ 23 1026.0    6/ 6   2/10

$$



USA.gov is the U.S. government's official web portal to all federal, state and local government web resources and services.